This is the latest recevied weather packets stored in our database for station/object EA6AMI-5. If no packets are shown the sender has not sent any weather packets the latest 10 day(s).
| Time | Temp. | Humidity | Pressure | Rain* | Wind** | Luminosity | Snow |
|---|---|---|---|---|---|---|---|
| 1778086803 | 17.78° C | 80% | 1011.8 hPa | 0 mm | - | 167 W/m² | - |
| 1778086443 | 17.78° C | 80% | 1012 hPa | 0 mm | - | 155 W/m² | - |
| 1778085904 | 17.78° C | 79% | 1012.1 hPa | 0 mm | - | 126 W/m² | - |
| 1778085364 | 18.33° C | 78% | 1012 hPa | 0 mm | - | 108 W/m² | - |
| 1778084823 | 17.78° C | 75% | 1011.8 hPa | 0 mm | - | 164 W/m² | - |
| 1778084283 | 17.22° C | 79% | 1011.8 hPa | 0 mm | - | 210 W/m² | - |
| 1778083744 | 17.22° C | 80% | 1011.5 hPa | 0 mm | - | 202 W/m² | - |
| 1778083203 | 16.11° C | 77% | 1011.8 hPa | 0.25 mm | - | 266 W/m² | - |
| 1778082844 | 16.67° C | 78% | 1011.9 hPa | 0.76 mm | - | 145 W/m² | - |
| 1778082304 | 16.67° C | 78% | 1012.1 hPa | 1.02 mm | - | 113 W/m² | - |
| 1778081763 | 16.11° C | 74% | 1012.1 hPa | 1.02 mm | - | 97 W/m² | - |
| 1778081223 | 16.11° C | 80% | 1012.2 hPa | 1.27 mm | - | 156 W/m² | - |
| 1778080683 | 16.11° C | 82% | 1012.1 hPa | 1.78 mm | - | 163 W/m² | - |
| 1778080143 | 15.56° C | 83% | 1011.7 hPa | 3.3 mm | - | 246 W/m² | - |
| 1778079604 | 16.11° C | 87% | 1012 hPa | 3.3 mm | - | 169 W/m² | - |
| 1778079243 | 16.11° C | 87% | 1012.1 hPa | 3.3 mm | - | 107 W/m² | - |
| 1778078704 | 16.11° C | 87% | 1012.1 hPa | 3.05 mm | - | 80 W/m² | - |
| 1778078164 | 16.11° C | 86% | 1012.3 hPa | 2.79 mm | - | 72 W/m² | - |
| 1778077624 | 16.11° C | 85% | 1012.1 hPa | 2.79 mm | - | 51 W/m² | - |
| 1778077083 | 16.67° C | 83% | 1012.2 hPa | 2.29 mm | - | 64 W/m² | - |
| 1778076543 | 16.67° C | 82% | 1012.7 hPa | 1.27 mm | - | 47 W/m² | - |
| 1778076004 | 16.67° C | 83% | 1012.5 hPa | 0.76 mm | - | 36 W/m² | - |
| 1778075643 | 16.67° C | 83% | 1012.4 hPa | 0.51 mm | - | 43 W/m² | - |
| 1778075104 | 17.22° C | 83% | 1012 hPa | 0.51 mm | - | 61 W/m² | - |
| 1778074563 | 17.78° C | 83% | 1012.3 hPa | 0.51 mm | - | 86 W/m² | - |
* Rain latest hour (hover to see other rain measurements)
** Current wind speed in m/s (hover to see current wind gust speed)